This demonstration page uses our WeatherBlox Daily Observations layout. Learn more.

Left ArrowRight Arrow

39.01783, -85.05884

Hourly Observations for October 21, 2020

Temp ( °F °C ) Dew Point ( °F °C ) Humidity (%) Winds ( mph kmh ) Pressure ( in mb ) Visibility ( mi km ) Precip ( " mm )
12:52 am 00:52 Mostly Cloudy 59 15 57 13.9 93 93 S 8 13 30.08 1019 10 16.0934 0 0
1:52 am 01:52 Mostly Clear 61 16.1 58 14.4 90 90 S 9 15 30.07 1018 10 16.0934 0 0
4:52 am 04:52 Cloudy 63 17.2 58 14.4 84 84 S 13 21 30.09 1019 10 16.09 0 0
5:52 am 05:52 Partly Cloudy 63 17.2 58 14.4 84 84 S 8 13 30.11 1020 10 16.09 0 0
7:52 am 07:52 Mostly Cloudy 62 16.7 58 14.4 86 86 W 5 7 30.14 1021 10 16.0934 0 0
8:52 am 08:52 Mostly Cloudy 61 16.1 58 14.4 90 90 S 6 9 30.15 1021 8 12.87472 0 0
9:52 am 09:52 Mostly Cloudy 65 18.3 59 15 81 81 SSW 13 20 30.16 1022 10 16.0934 0 0
10:52 am 10:52 Mostly Cloudy 68 20 60 15.6 76 76 SW 9 15 30.16 1022 10 16.0934 0 0
11:52 am 11:52 Cloudy 69 20.6 61 16.1 76 76 SSW 8 13 30.18 1022 10 16.0934 0 0
12:52 pm 12:52 Cloudy 70 21.1 61 16.1 73 73 SW 7 11 30.19 1022 10 16.0934 0 0
1:52 pm 13:52 Cloudy 70 21.1 61 16.1 73 73 SW 5 7 30.18 1022 10 16.0934 0 0
2:52 pm 14:52 Cloudy with Light Rain 68 20 62 16.7 81 81 W 5 7 30.18 1022 7 11.26538 0.001 0.001
3:52 pm 15:52 Cloudy with Light Rain 67 19.4 63 17.2 87 87 N 8 13 30.16 1021 7 11.26538 0.001 0.001
4:52 pm 16:52 Mostly Cloudy 69 20.6 63 17.2 81 81 Calm 30.15 1021 8 12.87472 0.001 0.001
5:52 pm 17:52 Partly Cloudy 70 21.1 62 16.7 76 76 Calm 30.16 1021 10 16.0934 0 0
6:52 pm 18:52 Mostly Cloudy 66 18.9 62 16.7 87 87 N 6 9 30.16 1021 8 12.87472 0 0
7:52 pm 19:52 Mostly Clear with Mist and Fog 64 17.8 61 16.1 90 90 NNE 3 6 30.16 1022 6 9.65604 0 0
8:52 pm 20:52 Mostly Clear with Mist and Fog 62 16.7 60 15.6 93 93 ENE 3 6 30.17 1022 5 8.0467 0 0
9:52 pm 21:52 Clear with Mist and Fog 62 16.7 60 15.6 93 93 NE 3 6 30.17 1022 4 6.43736 0 0
10:52 pm 22:52 Clear with Mist and Fog 62 16.7 60 15.6 93 93 E 3 6 30.17 1022 4 6.43736 0 0
11:22 pm 23:22 Mostly Clear with Patchy Fog 62 16.7 61 16.1 96 96 E 3 6 30.17 1022 2 3.21868 0 0
11:52 pm 23:52 Clear with Patchy Fog 62 16.7 60 15.6 93 93 E 5 7 30.16 1021 2.5 4.02335 0 0
11:55 pm 23:55 Clear with Patchy Fog 62 16.7 60 15.6 93 93 E 3 6 30.17 1022 3 4.82802 0 0

Powered by AerisWeather